Погода в Нижнем Малгобеке

Россия / Республика Северная Осетия — Алания     43°36′55″N   44°27′13″E
темп.,
°C
ветер,
м/с
пор.,
м/с
влажн.,
%
обл.,
%
осадки,
мм/ч
давл.,
гПа
погр.,
м
14 апреля, ср
ср1400:00+8юз229335 0.0 101862
03:00+8з2393100 0.0 1017104
06:00+7з2493100 0.4 1017119
09:00+10зсз1280100 0.4 1018436
12:00+13сз3466100 1.3 1017966
15:00+14ссз3459100 1.3 10171151
18:00+12ссз3568100 0.0 1017186
21:00+10зюз1174100 0.0 101810
15 апреля, чт
чт1500:00+8зсз118272 0.0 101810
03:00+7юз21862 0.0 101811
06:00+7ююз22870 0.0 101920
09:00+13зюз22632 0.0 1018590
12:00+17ссз33435 0.0 10161224
15:00+18ссз333699 0.0 10161555
18:00+15ссв2349100 0.0 101653
21:00+13вюв2254100 0.0 101713
16 апреля, пт
пт1600:00+12ююв115699 0.0 101710
03:00+11ю006068 0.0 101710
06:00+10юв116397 0.0 101810
09:00+15в234889 0.0 1018637
12:00+19в55405 0.0 10171625
15:00+20в55385 0.0 10161758
18:00+17всв494896 0.1 1016277
21:00+12юв227489 1.1 101829
17 апреля, сб
сб1700:00+12ююв1169100 0.3 101810
03:00+9зсз338852 0.3 101948
06:00+10зсз3697100 0.0 1021466
09:00+10ссз2491100 0.1 1023524
12:00+11зсз2288100 0.3 1022359
15:00+10зсз3490100 0.3 1023353
18:00+9з2391100 0.0 1023179
21:00+9сз1192100 0.0 102371
18 апреля, вс
вс1800:00+9в1192100 0.0 102166
03:00+9св2393100 0.1 1021133
06:00+9св1395100 0.4 1021183
09:00+11вюв358891 0.5 1020504
12:00+14в4470100 0.1 10181010
15:00+15в3366100 0.1 10181113
18:00+14всв237699 0.1 1019133
21:00+11юв228815 0.1 101921